Terminal Aerodrome Forecast
Issued by NWS Austin/San Antonio, TX

Home | Current Version | Previous Version | Text Only | Print | Product List | Glossary On
Versions: 1 2 3 4 5 6 7 8 9 10 11 12 13 14 15
366
FTUS44 KEWX 141251 AAA
TAFAUS
TAF AMD
KAUS 141251Z 1413/1518 18009KT P6SM SCT006 BKN035
      TEMPO 1413/1415 BKN006
     FM141600 19016G26KT P6SM SCT035 SCT250
     FM142300 17011KT P6SM FEW040 SCT250
     FM150600 18010KT 4SM BR OVC007
     FM151500 34010KT P6SM BKN015=

USA.gov is the U.S. government's official web portal to all federal, state and local government web resources and services.